Location: Bury
(52.4167°N, 0.1000°W)
Time: 13:36:49
(UTC+00:00)

Daily predictions for brighter satellites

Satellite Brightness Start Highest point End
(mag) Time Altitude Azimuth Time Altitude Azimuth Time Altitude Azimuth
Cosmos 2369 Rocket 2.5 16:16:27 10° SW 16:22:05 72° WNW 16:27:48 10° NNE
USA 215 3.5 16:18:32 10° ENE 16:25:00 63° N 16:31:27 10° W
Cosmos 44 4.4 16:21:27 10° NW 16:26:33 56° SW 16:31:48 10° SSE
Cosmos 1758 Rocket 4.3 16:23:51 10° N 16:27:40 29° ENE 16:31:25 10° SE
Cosmos 2228 3.7 16:23:54 10° SSE 16:27:40 32° E 16:31:29 10° NNE
Intercosmos 24 4.5 16:24:20 10° N 16:28:17 34° ENE 16:31:36 10° SE
Cosmos 2208 Rocket 4.4 16:23:56 10° NNW 16:28:49 41° NE 16:33:42 10° SE
ARIANE 5 R/B 3.1 16:25:33 10° SE 16:30:04 34° ENE 16:34:39 10° N
Cosmos 1943 Rocket 4.1 16:26:23 10° WNW 16:30:12 19° NNW 16:34:02 10° NNE
Cosmos 2278 Rocket 4.0 16:26:08 10° WNW 16:30:13 20° NNW 16:34:18 10° NNE
Sich 1 Rocket 4.0 16:25:45 10° SSW 16:30:17 69° WNW 16:34:48 10° N
ARIANE 6 FM1 Upper Stage 4.1 16:27:55 10° WNW 16:31:41 42° SW 16:35:28 10° SSE
Cosmos 2098 Rocket 4.4 16:30:26 10° SE 16:33:24 20° E 16:36:43 10° NE
Okean 1 Rocket 3.5 16:29:52 10° SSW 16:34:09 63° WNW 16:38:27 10° N
GEOS 3 Rocket 4.3 16:30:03 10° NE 16:35:10 44° SE 16:40:17 10° SSW
Okean 2 Rocket 4.0 16:34:30 10° SSW 16:38:44 48° WNW 16:43:00 10° N
USA 290 3.3 16:43:01 10° N 16:45:49 25° NE 16:48:35 10° ESE
CBERS-1 4.0 16:44:45 10° SSE 16:49:53 89° ENE 16:55:02 10° NNW
IRS-1C 4.3 16:46:29 10° SE 16:51:35 49° ENE 16:56:43 10° N
BREEZE-M DEB (TANK) 3.0 16:49:32 10° WSW 16:52:05 78° SSE 16:59:05 11° E
Cosmos 1626 Rocket 3.6 16:47:54 10° N 16:52:12 55° ENE 16:56:25 10° SSE
NOSS 2-2 (C) 3.3 16:51:00 10° SSW 16:54:04 40° SE 16:56:15 15° ENE
SMAP 3.1 16:51:18 10° SSE 16:55:53 61° ENE 17:00:31 10° N
CZ-2D R/B 3.4 16:53:29 10° SE 16:56:19 32° ENE 16:59:12 10° N
Cosmos 2026 Rocket 4.4 16:52:20 10° NNW 16:58:30 68° W 17:04:44 10° S
NOSS 3-2 (A) 3.6 16:55:58 10° SSW 17:00:45 44° ESE 17:05:38 14° NE
Thor Agena Rocket 3.5 16:55:32 10° SSE 17:00:45 83° ENE 17:05:58 10° NNW
Cosmos 2151 3.5 16:56:59 10° N 17:00:50 35° ENE 17:04:40 10° SE
Landsat 7 3.8 16:57:32 10° SE 17:02:03 54° ENE 17:06:37 10° N
BlueWalker 3 2.6 17:00:05 10° WNW 17:03:37 51° SSW 17:07:09 10° SE
Cosmos 1634 Rocket 3.9 16:58:38 10° S 17:04:49 79° E 17:11:01 10° NNE
Cosmos 1743 2.7 17:02:29 10° N 17:05:36 39° ENE 17:08:40 10° SE
ATLAS CENTAUR R/B 0.6 17:03:09 10° NW 17:06:27 74° NE 17:09:38 10° SE
UNK 3.9 17:03:25 10° NNE 17:07:56 51° E 17:12:22 10° S
Okean 1-7 Rocket 4.2 17:04:48 10° N 17:08:50 33° ENE 17:12:48 10° SE
Cosmos 2297 Rocket 2.2 17:03:51 10° NNW 17:09:31 67° NE 17:15:10 10° SE
Cosmos 1484 Rocket 3.7 17:06:56 10° S 17:10:20 46° W 17:13:46 10° NNW
Lacrosse 4 Rocket 1.5 17:06:39 10° SW 17:10:42 68° NW 17:14:13 13° NNE
Cosmos 1544 Rocket 3.7 17:07:44 10° S 17:12:00 52° E 17:16:19 10° NNE
Cosmos 1656 4.0 17:08:30 10° S 17:13:51 47° ESE 17:18:28 14° NE
Meteor 1-27 4.3 17:08:18 10° SSW 17:14:07 86° WNW 17:19:56 10° NNE
IRIDIUM 104 4.5 17:11:10 10° N 17:16:17 51° E 17:21:21 10° SSE
Iridium 51 4.0 17:13:23 10° S 17:16:29 68° W 17:19:42 10° N
Meteor 1-28 Rocket 2.9 17:13:30 10° NNE 17:16:52 80° WNW 17:20:13 10° SSW
Cosmos 2279 Rocket 3.9 17:16:07 10° S 17:22:18 76° E 17:28:33 10° NNE
Cosmos 2219 4.3 17:18:04 10° NNW 17:22:49 26° NE 17:25:09 20° ENE
IRIDIUM 114 4.3 17:20:16 10° N 17:25:27 60° E 17:30:37 10° SSE
Lacrosse 5 rocket 1.0 17:22:48 10° WSW 17:26:34 89° NNW 17:28:28 27° ENE
Spot 4 Rocket 4.5 17:22:40 10° SE 17:27:21 38° ENE 17:32:03 10° N
COSMO-SKYMED 1 4.1 17:29:12 16° ESE 17:29:12 16° ESE 17:30:52 10° SE
SAR-Lupe-4 3.5 17:25:32 10° SSE 17:29:06 89° WSW 17:32:41 10° NNW
Cosmos 1602 Rocket 3.4 17:25:37 10° N 17:30:03 71° ENE 17:34:24 10° SSE
PSLV R/B 4.2 17:28:52 19° ESE 17:30:47 28° ENE 17:34:14 10° N
Cosmos 2084 3.9 17:27:09 10° WSW 17:31:17 54° NW 17:33:52 21° NE
MOS 1 Rocket 3.3 17:26:52 10° SSE 17:31:42 71° ENE 17:36:50 10° N
CZ-4C R/B 2.8 17:27:51 10° NW 17:34:28 80° NE 17:42:53 10° SE
Cosmos 2084 Rocket 3.3 17:30:26 10° NW 17:34:39 70° NE 17:37:51 17° ESE
IRIDIUM 103 4.2 17:29:24 10° N 17:34:39 71° E 17:39:52 10° SSE
Cosmos 2180 Rocket 4.4 17:29:08 10° S 17:35:11 68° E 17:41:19 10° NNE
Cosmos 724 4.4 17:29:14 10° NW 17:35:22 87° SW 17:41:18 10° SE
Cosmos 1315 Rocket 3.9 17:32:21 10° SW 17:36:01 42° WNW 17:39:42 10° N
SAR-Lupe-1 4.1 17:32:47 10° SSE 17:36:23 86° W 17:40:01 10° NNW
Cosmos 1777 Rocket 4.3 17:32:22 10° S 17:37:20 45° ESE 17:40:21 22° NE
Cosmos 1867 3.5 17:33:09 10° NW 17:38:38 69° NE 17:44:01 10° SE
Cosmos 1980 Rocket 4.1 17:36:48 10° SE 17:37:44 12° ESE 17:37:44 12° ESE
CZ-2D R/B 3.7 17:35:54 10° SE 17:39:54 45° ENE 17:43:54 10° N
Resurs 01 Rocket 3.6 17:42:49 14° NNE 17:42:49 14° NNE 17:43:38 10° NNE
IRS-P3 4.0 17:36:19 10° SSE 17:41:39 84° ENE 17:47:00 10° NNW
Cosmos 1900 4.3 17:37:19 10° NW 17:42:25 72° NE 17:47:17 11° SE
Cosmos 1782 2.6 17:39:28 10° SSW 17:43:04 78° WNW 17:46:14 13° N
Cosmos 1733 3.9 17:41:38 10° NW 17:43:19 25° W 17:44:58 10° SSW
Cosmos 1844 Rocket 4.2 17:40:43 10° NNW 17:44:26 18° NNE 17:44:55 17° NNE
YAOGAN 1 2.8 17:41:10 10° SE 17:45:12 42° ENE 17:49:14 10° N
Cosmos 405 Rocket 4.4 17:44:21 10° NNW 17:47:13 28° W 17:50:04 10° SSW
Cosmos 2263 Rocket 2.5 17:45:50 10° NNW 17:51:14 43° NE 17:53:45 28° E
Cosmos 1486 Rocket 3.9 17:46:36 10° SSW 17:51:46 72° ESE 17:55:12 22° NNE
Cosmos 1953 Rocket 4.0 17:47:51 10° N 17:52:02 39° ENE 17:53:35 29° ESE
IRIDIUM 106 4.3 17:47:44 10° N 17:52:59 84° W 17:58:13 10° S
NOSS 2-2 (D) 2.5 17:51:12 10° SW 17:54:27 82° SE 17:54:45 69° ENE
CENTAUR R/B 3.0 17:49:56 10° WSW 17:55:51 58° NNW 18:00:51 21° NE
Cosmos 2266 Rocket 4.0 17:49:48 10° N 17:56:02 86° W 18:02:08 10° S
SL-16 R/B 3.5 17:51:26 10° N 17:57:22 47° WNW 18:03:16 10° SW
Cosmos 2360 4.1 17:51:51 10° SSW 17:57:33 71° ESE 18:00:53 26° NE
NOSS 7 (H) 3.9 17:55:47 10° NW 17:58:38 80° N 17:58:38 80° N
USA 81 4.4 17:53:45 10° N 17:58:44 41° ENE 18:03:41 10° SE
Cosmos 1607 4.3 17:52:41 10° NW 17:58:52 68° SW 18:05:06 10° SSE
Cosmos 1933 3.2 17:55:47 10° S 17:59:32 55° E 17:59:50 52° ENE
Cosmos 2227 Rocket 2.1 17:54:48 10° NNW 18:00:29 73° ENE 18:06:07 10° SE
NOSS 2-2 (E) 2.5 18:00:31 10° SW 18:03:40 79° SSE 18:03:40 79° SSE
Cosmos 1825 Rocket 3.4 18:00:01 10° N 18:04:24 79° ENE 18:08:44 10° SSE
Cosmos 2369 Rocket 4.1 18:02:49 10° W 18:07:08 22° NNW 18:11:14 11° NNE
USA 215 3.3 18:04:26 32° E 18:07:42 67° NNE 18:14:11 10° WNW
ARIANE 5 R/B 3.7 18:04:12 10° S 18:09:00 44° W 18:13:55 10° NNW
BREEZE M DEB (TANK) 4.2 18:08:28 10° SSW 18:09:12 15° SSW 18:09:12 15° SSW
Cosmos 2098 Rocket 3.8 18:06:37 10° SSW 18:10:32 53° WNW 18:15:12 10° N
NOAA 6 4.0 18:05:52 10° SE 18:10:51 57° ENE 18:15:52 10° N
SPOT 1/Viking Rocket 3.6 18:06:46 10° SSE 18:11:59 82° WSW 18:17:14 10° NNW
USA 281 4.2 18:11:45 26° NE 18:12:01 26° NE 18:17:16 10° NNW
GEOS 3 Rocket 4.1 18:10:23 26° NNE 18:13:15 57° NW 18:18:31 10° WSW
BREEZE-M DEB (TANK) 3.9 18:13:15 10° SW 18:13:35 14° SSW 18:13:35 14° SSW
IRAS Rocket 4.1 18:09:56 10° SSE 18:15:25 76° ENE 18:20:54 10° NNW
Cosmos 1943 Rocket 4.4 18:14:51 10° NNW 18:16:21 11° N 18:17:42 10° NNE
Cosmos 2278 Rocket 4.4 18:14:46 10° NNW 18:16:42 12° N 18:18:15 11° NNE
Cosmos 990 Rocket 4.0 18:15:01 10° S 18:19:57 51° ESE 18:20:06 51° E
USA 290 4.4 18:17:17 10° NW 18:20:08 28° WSW 18:22:58 10° SSW
Cosmos 1697 Rocket 2.7 18:15:38 10° S 18:21:04 55° ESE 18:21:56 49° E
Cosmos 1244 Rocket 4.4 18:29:13 10° N 18:35:31 64° ENE 18:40:12 18° SSE
Cosmos 1606 Rocket 3.9 18:36:16 10° SSW 18:40:38 64° WNW 18:41:48 45° NNW
ATLAS CENTAUR R/B 3.9 18:39:15 10° W 18:40:47 13° WSW 18:42:19 10° SW
Cosmos 1076 Rocket 3.8 18:40:22 10° NNW 18:44:38 65° W 18:48:53 10° S
Cosmos 1538 Rocket 3.9 18:39:50 10° NNW 18:45:08 87° ENE 18:45:41 73° SE
Cosmos 2082 3.9 18:39:33 10° NNW 18:44:30 53° NNE 18:44:30 53° NNE
Cosmos 1655 Rocket 4.2 18:40:54 10° NNW 18:47:08 69° W 18:53:17 10° S
Resurs 1-3 4.2 18:43:10 10° S 18:47:22 53° W 18:51:37 10° NNW
Lacrosse 4 Rocket 3.6 18:46:34 10° WNW 18:49:16 17° NNW 18:49:43 17° NNW
NOSS 3-2 (C) 3.1 18:44:14 10° SW 18:49:26 90° E 18:50:02 73° NE
Cosmos 1461 4.1 18:47:17 10° SW 18:49:37 35° SW 18:49:37 35° SW
NOSS 3-2 (A) 3.8 18:46:12 10° WSW 18:51:25 53° NNW 18:52:59 42° NNE
Cosmos 2297 Rocket 4.3 18:48:29 10° NW 18:53:07 26° WSW 18:57:43 10° SSW
SL-08 R/B 4.3 18:50:58 10° N 18:57:18 75° E 18:57:43 72° ESE
Meteor 2-20 4.4 18:52:17 10° SSW 18:58:28 84° W 19:01:56 28° N
Meteor 2-10 4.2 18:55:11 10° NNW 19:00:28 75° W 19:02:07 45° S
COSMO-SKYMED 1 4.1 19:05:32 29° SW 19:05:32 29° SW 19:07:42 10° SSW
Lacrosse 5 rocket 3.3 19:00:21 10° W 19:02:04 23° WNW 19:02:04 23° WNW
Cosmos 1354 Rocket 4.2 18:58:49 10° SW 19:04:04 67° WNW 19:04:17 66° NW
Cosmos 1726 Rocket 4.5 19:02:48 10° SSW 19:07:19 50° WNW 19:07:22 50° WNW
Cosmos 2219 3.3 19:01:58 10° NNW 19:07:06 72° NNW 19:07:06 72° NNW
Resurs 01 Rocket 4.2 19:20:13 13° NNW 19:20:13 13° NNW 19:20:45 10° NNW
Cosmos 1980 Rocket 3.6 19:17:01 10° SSW 19:19:32 27° SSW 19:19:32 27° SSW
CZ-4C R/B 4.3 19:16:17 10° WNW 19:22:41 37° WSW 19:30:17 10° S
Cosmos 1844 Rocket 4.3 19:24:11 10° NNW 19:26:33 25° NNW 19:26:33 25° NNW
Cosmos 2263 Rocket 3.1 19:29:51 10° NW 19:35:12 44° WSW 19:35:30 44° WSW
Cosmos 2227 Rocket 4.2 19:39:34 10° NW 19:43:59 24° WSW 19:48:23 10° SSW
CENTAUR R/B 3.8 19:41:46 10° WNW 19:47:57 37° N 19:47:57 37° N
USA 215 3.6 19:51:47 61° W 19:51:47 61° W 19:57:18 10° WNW
USA 281 4.3 19:58:38 37° NNW 19:58:38 37° NNW 20:02:20 10° NNW
Cosmos 1697 Rocket 4.3 20:00:07 10° WSW 20:03:41 30° W 20:03:41 30° W
